User: anonymous   Login
Location: Unspecified
(0.0000°N, 0.0000°E)
Time: 18:53:12
(UTC+00:00)
Language:

NNS O-25 - Orbit

View from above orbital plane
View from above orbital plane
View from above satellite
View from above satellite

Ground track
Ground track

The orbit data is extracted from the following two-line orbital elements,

1 19419U 88074A   19341.55611477  .00000053  00000-0  74638-4 0  9995
2 19419  89.9932  18.0156 0097409  33.5909  78.1074 13.42221687531906
Epoch (UTC): 07 December 2019 13:20:48
Eccentricity: 0.0097409
inclination: 89.9932°
perigee height: 1028 km
apogee height: 1174 km
right ascension of ascending node: 18.0156°
argument of perigee: 33.5909°
revolutions per day: 13.42221687
mean anomaly at epoch: 78.1074°
orbit number at epoch: 53190

The dashed part of the orbit path shows where the satellite is in the earth's shadow,  

DLR